AHS969D GCRR-GCLA

Flight info

Callsign AHS969D
Flight time 0h 54m
Altitude 31000
Route LARYS
Aircraft A321/M-SDE3FGHIRWY/LB1

Departure

Time 2026-04-24 09:10
Airport César Manrique-Lanzarote Airport (GCRR)

Arrival

Time 2026-04-24 10:04
Airport La Palma Airport (GCLA)
Time Latitude Longitude Altitude Speed Heading
2026-04-24 08:50 28.95189 -13.60592 92 ft 0 kts 297°
2026-04-24 09:01 28.95187 -13.60589 92 ft 1 kts 297°
2026-04-24 09:02 28.95181 -13.60575 92 ft 1 kts 297°
2026-04-24 09:02 28.95176 -13.60565 91 ft 2 kts 288°
2026-04-24 09:02 28.95174 -13.60548 90 ft 2 kts 267°
2026-04-24 09:02 28.95176 -13.60532 89 ft 2 kts 249°
2026-04-24 09:03 28.95184 -13.60516 89 ft 2 kts 231°
2026-04-24 09:03 28.95195 -13.60505 89 ft 1 kts 212°
2026-04-24 09:03 28.95200 -13.60501 89 ft 1 kts 205°
2026-04-24 09:03 28.95203 -13.60500 89 ft 0 kts 207°
2026-04-24 09:05 28.95198 -13.60502 89 ft 3 kts 207°
2026-04-24 09:05 28.95149 -13.60509 88 ft 11 kts 144°
2026-04-24 09:06 28.95092 -13.60431 77 ft 14 kts 158°
2026-04-24 09:06 28.94981 -13.60475 73 ft 18 kts 208°
2026-04-24 09:06 28.94868 -13.60543 73 ft 18 kts 207°
2026-04-24 09:06 28.94745 -13.60614 67 ft 21 kts 207°
2026-04-24 09:07 28.94597 -13.60699 56 ft 25 kts 207°
2026-04-24 09:07 28.94436 -13.60792 56 ft 24 kts 207°
2026-04-24 09:07 28.94106 -13.60988 41 ft 29 kts 208°
2026-04-24 09:08 28.93935 -13.61081 49 ft 21 kts 206°
2026-04-24 09:08 28.93824 -13.61151 53 ft 16 kts 208°
2026-04-24 09:08 28.93731 -13.61203 52 ft 10 kts 206°
2026-04-24 09:08 28.93656 -13.61201 49 ft 13 kts 136°
2026-04-24 09:09 28.93614 -13.61118 44 ft 9 kts 106°
2026-04-24 09:09 28.93639 -13.61052 43 ft 10 kts 33°
2026-04-24 09:09 28.93655 -13.61041 44 ft 0 kts 29°
2026-04-24 09:09 28.93698 -13.61015 44 ft 33 kts 26°
2026-04-24 09:10 28.94150 -13.60755 40 ft 109 kts 26°
2026-04-24 09:10 28.95007 -13.60245 95 ft 162 kts 27°
2026-04-24 09:10 28.96035 -13.59642 732 ft 165 kts 30°
2026-04-24 09:10 28.96889 -13.58857 1579 ft 160 kts 41°
2026-04-24 09:11 28.97713 -13.58079 2190 ft 158 kts 34°
2026-04-24 09:11 28.98653 -13.57312 2543 ft 171 kts 33°
2026-04-24 09:11 28.99662 -13.56507 2884 ft 186 kts 34°
2026-04-24 09:11 29.00752 -13.55584 3230 ft 203 kts 36°
2026-04-24 09:12 29.01719 -13.54311 3495 ft 229 kts 65°
2026-04-24 09:12 29.01889 -13.52423 3889 ft 254 kts 90°
2026-04-24 09:12 29.01892 -13.50379 4477 ft 259 kts 74°
2026-04-24 09:12 29.02650 -13.48587 5209 ft 256 kts 46°
2026-04-24 09:13 29.04088 -13.47422 5986 ft 256 kts 22°
2026-04-24 09:13 29.05719 -13.46626 6739 ft 260 kts 26°
2026-04-24 09:13 29.07257 -13.45510 7477 ft 266 kts 35°
2026-04-24 09:13 29.08674 -13.44170 8200 ft 271 kts 39°
2026-04-24 09:14 29.10187 -13.42869 8939 ft 274 kts 24°
2026-04-24 09:14 29.11999 -13.42311 9654 ft 276 kts
2026-04-24 09:14 29.13889 -13.42596 10381 ft 277 kts 340°
2026-04-24 09:14 29.15585 -13.43722 10858 ft 291 kts 317°
2026-04-24 09:15 29.16787 -13.45655 11174 ft 310 kts 293°
2026-04-24 09:15 29.17142 -13.48121 11657 ft 326 kts 268°
2026-04-24 09:15 29.16682 -13.50644 12397 ft 329 kts 258°
2026-04-24 09:15 29.16136 -13.53182 13170 ft 329 kts 258°
2026-04-24 09:16 29.15592 -13.55690 13882 ft 329 kts 258°
2026-04-24 09:16 29.15035 -13.58253 14565 ft 332 kts 258°
2026-04-24 09:16 29.14482 -13.60792 15207 ft 335 kts 258°
2026-04-24 09:16 29.13915 -13.63400 15815 ft 338 kts 258°
2026-04-24 09:17 29.13351 -13.65991 16384 ft 341 kts 258°
2026-04-24 09:17 29.12780 -13.68609 16953 ft 345 kts 258°
2026-04-24 09:17 29.12193 -13.71299 17534 ft 348 kts 258°
2026-04-24 09:17 29.11605 -13.73982 18088 ft 351 kts 258°
2026-04-24 09:18 29.11013 -13.76686 18674 ft 353 kts 258°
2026-04-24 09:18 29.10420 -13.79393 19233 ft 356 kts 258°
2026-04-24 09:18 29.09816 -13.82146 19801 ft 358 kts 258°
2026-04-24 09:18 29.09214 -13.84889 20353 ft 361 kts 258°
2026-04-24 09:19 29.08602 -13.87676 20897 ft 363 kts 257°
2026-04-24 09:19 29.07989 -13.90463 21408 ft 366 kts 257°
2026-04-24 09:19 29.07366 -13.93293 21932 ft 369 kts 257°
2026-04-24 09:19 29.06741 -13.96130 22458 ft 371 kts 257°
2026-04-24 09:20 29.06105 -13.99014 22966 ft 373 kts 257°
2026-04-24 09:20 29.05473 -14.01870 23451 ft 376 kts 257°
2026-04-24 09:20 29.04832 -14.04762 23956 ft 378 kts 257°
2026-04-24 09:20 29.04186 -14.07679 24465 ft 379 kts 257°
2026-04-24 09:21 29.03545 -14.10570 24942 ft 381 kts 257°
2026-04-24 09:21 29.02889 -14.13525 25412 ft 384 kts 257°
2026-04-24 09:21 29.02229 -14.16498 25880 ft 386 kts 257°
2026-04-24 09:21 29.01576 -14.19436 26323 ft 388 kts 258°
2026-04-24 09:22 29.00903 -14.22457 26771 ft 390 kts 258°
2026-04-24 09:22 29.00240 -14.25433 27210 ft 392 kts 258°
2026-04-24 09:22 28.99567 -14.28451 27624 ft 394 kts 258°
2026-04-24 09:22 28.98888 -14.31493 28033 ft 396 kts 258°
2026-04-24 09:23 28.98211 -14.34525 28423 ft 398 kts 258°
2026-04-24 09:23 28.97531 -14.37565 28862 ft 398 kts 258°
2026-04-24 09:23 28.96842 -14.40635 29409 ft 396 kts 258°
2026-04-24 09:23 28.96166 -14.43644 29926 ft 394 kts 258°
2026-04-24 09:24 28.95485 -14.46676 30317 ft 395 kts 258°
2026-04-24 09:24 28.94802 -14.49718 30656 ft 397 kts 258°
2026-04-24 09:24 28.94121 -14.52743 31002 ft 398 kts 258°
2026-04-24 09:24 28.93428 -14.55819 31095 ft 399 kts 258°
2026-04-24 09:25 28.92049 -14.61934 31099 ft 399 kts 258°
2026-04-24 09:25 28.90668 -14.68043 31102 ft 400 kts 257°
2026-04-24 09:26 28.89280 -14.74181 31100 ft 401 kts 257°
2026-04-24 09:26 28.87877 -14.80349 31101 ft 401 kts 257°
2026-04-24 09:27 28.86481 -14.86475 31101 ft 401 kts 257°
2026-04-24 09:27 28.85076 -14.92624 31103 ft 400 kts 257°
2026-04-24 09:28 28.83673 -14.98755 31102 ft 401 kts 257°
2026-04-24 09:28 28.82267 -15.04891 31104 ft 400 kts 257°
2026-04-24 09:29 28.80867 -15.10984 31103 ft 400 kts 257°
2026-04-24 09:29 28.79457 -15.17117 31107 ft 400 kts 257°
2026-04-24 09:30 28.78046 -15.23238 31106 ft 400 kts 257°
2026-04-24 09:30 28.76628 -15.29374 31105 ft 400 kts 257°
2026-04-24 09:31 28.75215 -15.35476 31108 ft 400 kts 257°
2026-04-24 09:31 28.73795 -15.41591 31108 ft 400 kts 257°
2026-04-24 09:32 28.72380 -15.47671 31109 ft 401 kts 257°
2026-04-24 09:32 28.70946 -15.53825 31108 ft 401 kts 257°
2026-04-24 09:33 28.69525 -15.59902 31109 ft 400 kts 257°
2026-04-24 09:33 28.68175 -15.65670 31113 ft 401 kts 257°
2026-04-24 09:34 28.67554 -15.68313 31111 ft 401 kts 257°
2026-04-24 09:34 28.66130 -15.74380 31110 ft 400 kts 257°
2026-04-24 09:35 28.64684 -15.80526 31109 ft 400 kts 256°
2026-04-24 09:35 28.63253 -15.86593 31113 ft 401 kts 256°
2026-04-24 09:36 28.61804 -15.92723 31114 ft 400 kts 257°
2026-04-24 09:36 28.60363 -15.98809 31112 ft 400 kts 256°
2026-04-24 09:37 28.58912 -16.04922 31115 ft 401 kts 256°
2026-04-24 09:37 28.57456 -16.11044 31119 ft 401 kts 256°
2026-04-24 09:38 28.56003 -16.17150 30306 ft 409 kts 256°
2026-04-24 09:38 28.55251 -16.20300 29360 ft 414 kts 256°
2026-04-24 09:38 28.54511 -16.23455 28523 ft 414 kts 257°
2026-04-24 09:39 28.53910 -16.26598 27893 ft 409 kts 260°
2026-04-24 09:39 28.53467 -16.29765 27378 ft 403 kts 263°
2026-04-24 09:39 28.53168 -16.32902 26879 ft 396 kts 265°
2026-04-24 09:39 28.52902 -16.35987 26393 ft 390 kts 265°
2026-04-24 09:40 28.52647 -16.38996 25915 ft 384 kts 265°
2026-04-24 09:40 28.52394 -16.41979 25433 ft 379 kts 265°
2026-04-24 09:40 28.52142 -16.44937 24956 ft 375 kts 265°
2026-04-24 09:40 28.51893 -16.47866 24487 ft 370 kts 265°
2026-04-24 09:41 28.51648 -16.50736 24027 ft 366 kts 265°
2026-04-24 09:41 28.51402 -16.53616 23564 ft 362 kts 265°
2026-04-24 09:41 28.51159 -16.56436 23100 ft 359 kts 265°
2026-04-24 09:41 28.50916 -16.59267 22649 ft 356 kts 265°
2026-04-24 09:42 28.50675 -16.62052 22189 ft 354 kts 265°
2026-04-24 09:42 28.50436 -16.64815 21735 ft 352 kts 265°
2026-04-24 09:42 28.50196 -16.67587 21273 ft 350 kts 265°
2026-04-24 09:42 28.49960 -16.70299 20820 ft 349 kts 265°
2026-04-24 09:43 28.49722 -16.73046 20359 ft 348 kts 265°
2026-04-24 09:43 28.49486 -16.75750 19903 ft 346 kts 265°
2026-04-24 09:43 28.49248 -16.78462 19452 ft 344 kts 265°
2026-04-24 09:43 28.49012 -16.81140 19001 ft 343 kts 265°
2026-04-24 09:44 28.48777 -16.83813 18553 ft 341 kts 265°
2026-04-24 09:44 28.48538 -16.86506 18101 ft 340 kts 265°
2026-04-24 09:44 28.48304 -16.89141 17663 ft 338 kts 265°
2026-04-24 09:44 28.48071 -16.91776 17217 ft 337 kts 265°
2026-04-24 09:45 28.47837 -16.94407 16761 ft 336 kts 265°
2026-04-24 09:45 28.47601 -16.97059 16303 ft 335 kts 265°
2026-04-24 09:45 28.47368 -16.99665 15851 ft 334 kts 265°
2026-04-24 09:45 28.47132 -17.02302 15393 ft 334 kts 265°
2026-04-24 09:46 28.46897 -17.04918 14935 ft 333 kts 266°
2026-04-24 09:46 28.46663 -17.07525 14481 ft 332 kts 265°
2026-04-24 09:46 28.46429 -17.10128 14024 ft 331 kts 265°
2026-04-24 09:46 28.46198 -17.12690 13584 ft 330 kts 265°
2026-04-24 09:47 28.45964 -17.15275 13145 ft 328 kts 265°
2026-04-24 09:47 28.45729 -17.17860 12696 ft 327 kts 266°
2026-04-24 09:47 28.45498 -17.20404 12251 ft 325 kts 266°
2026-04-24 09:47 28.45265 -17.22951 11804 ft 324 kts 266°
2026-04-24 09:48 28.45035 -17.25469 11355 ft 322 kts 266°
2026-04-24 09:48 28.44806 -17.27972 10909 ft 321 kts 266°
2026-04-24 09:48 28.44574 -17.30500 10534 ft 316 kts 266°
2026-04-24 09:48 28.44350 -17.32931 10389 ft 303 kts 266°
2026-04-24 09:49 28.44136 -17.35262 10243 ft 291 kts 266°
2026-04-24 09:49 28.43930 -17.37497 10045 ft 283 kts 267°
2026-04-24 09:49 28.43726 -17.39709 9748 ft 279 kts 267°
2026-04-24 09:49 28.43529 -17.41843 9615 ft 268 kts 267°
2026-04-24 09:50 28.43336 -17.43917 9516 ft 256 kts 267°
2026-04-24 09:50 28.43191 -17.45872 9438 ft 243 kts 275°
2026-04-24 09:50 28.43654 -17.47646 9363 ft 237 kts 306°
2026-04-24 09:50 28.44847 -17.48897 9262 ft 234 kts 334°
2026-04-24 09:51 28.46406 -17.49347 9131 ft 234 kts
2026-04-24 09:51 28.47985 -17.48900 8989 ft 237 kts 28°
2026-04-24 09:51 28.49198 -17.47623 8839 ft 241 kts 57°
2026-04-24 09:51 28.49759 -17.45835 8727 ft 244 kts 76°
2026-04-24 09:52 28.49922 -17.43929 8649 ft 248 kts 97°
2026-04-24 09:52 28.49246 -17.42094 8645 ft 253 kts 121°
2026-04-24 09:52 28.48269 -17.40455 8628 ft 253 kts 122°
2026-04-24 09:52 28.47283 -17.38799 8623 ft 253 kts 122°
2026-04-24 09:53 28.46298 -17.37146 8613 ft 253 kts 127°
2026-04-24 09:53 28.44893 -17.35941 8594 ft 256 kts 163°
2026-04-24 09:53 28.43148 -17.35908 8601 ft 254 kts 200°
2026-04-24 09:53 28.41665 -17.36975 8603 ft 251 kts 231°
2026-04-24 09:54 28.40815 -17.38654 8533 ft 245 kts 258°
2026-04-24 09:54 28.40737 -17.40540 8497 ft 239 kts 285°
2026-04-24 09:54 28.41395 -17.42231 8447 ft 236 kts 306°
2026-04-24 09:54 28.42319 -17.43778 8171 ft 235 kts 307°
2026-04-24 09:55 28.43232 -17.45304 7795 ft 237 kts 306°
2026-04-24 09:55 28.43909 -17.47042 7336 ft 254 kts 280°
2026-04-24 09:55 28.43758 -17.49037 7134 ft 254 kts 253°
2026-04-24 09:55 28.42894 -17.50741 6986 ft 248 kts 229°
2026-04-24 09:56 28.41586 -17.51977 6830 ft 240 kts 219°
2026-04-24 09:56 28.40379 -17.53243 6646 ft 231 kts 235°
2026-04-24 09:56 28.39570 -17.54783 6441 ft 226 kts 245°
2026-04-24 09:56 28.38885 -17.56367 6183 ft 226 kts 247°
2026-04-24 09:57 28.38223 -17.57997 5906 ft 224 kts 248°
2026-04-24 09:57 28.37588 -17.59594 5630 ft 224 kts 248°
2026-04-24 09:57 28.36947 -17.61217 5349 ft 223 kts 248°
2026-04-24 09:57 28.36319 -17.62809 5077 ft 222 kts 248°
2026-04-24 09:58 28.35695 -17.64405 4799 ft 221 kts 251°
2026-04-24 09:58 28.35459 -17.66097 4473 ft 216 kts 282°
2026-04-24 09:58 28.36001 -17.67631 4399 ft 209 kts 310°
2026-04-24 09:58 28.37088 -17.68690 4426 ft 206 kts 336°
2026-04-24 09:59 28.38430 -17.69187 4463 ft 205 kts 347°
2026-04-24 09:59 28.39817 -17.69583 4469 ft 205 kts 347°
2026-04-24 09:59 28.41202 -17.69980 4469 ft 205 kts 347°
2026-04-24 09:59 28.42591 -17.70388 4387 ft 206 kts 347°
2026-04-24 10:00 28.43992 -17.70805 4085 ft 207 kts 347°
2026-04-24 10:00 28.45382 -17.71222 3766 ft 208 kts 347°
2026-04-24 10:00 28.46776 -17.71643 3480 ft 206 kts 347°
2026-04-24 10:00 28.48071 -17.72037 3383 ft 182 kts 347°
2026-04-24 10:01 28.49215 -17.72386 3334 ft 157 kts 347°
2026-04-24 10:01 28.50232 -17.72696 3103 ft 147 kts 347°
2026-04-24 10:01 28.51213 -17.72996 2884 ft 145 kts 347°
2026-04-24 10:01 28.52195 -17.73297 2704 ft 144 kts 347°
2026-04-24 10:02 28.53160 -17.73593 2729 ft 145 kts 346°
2026-04-24 10:02 28.54135 -17.73910 2523 ft 144 kts 343°
2026-04-24 10:02 28.55096 -17.74231 2051 ft 148 kts 346°
2026-04-24 10:02 28.56093 -17.74572 1595 ft 149 kts 345°
2026-04-24 10:03 28.57075 -17.74851 1201 ft 145 kts 349°
2026-04-24 10:03 28.58081 -17.75027 728 ft 147 kts 347°
2026-04-24 10:03 28.59053 -17.75221 489 ft 137 kts 346°
2026-04-24 10:03 28.59985 -17.75460 511 ft 136 kts 352°
2026-04-24 10:04 28.60933 -17.75527 329 ft 136 kts
2026-04-24 10:04 28.61869 -17.75539 141 ft 135 kts 359°
2026-04-24 10:04 28.62668 -17.75559 105 ft 73 kts 359°
2026-04-24 10:04 28.63031 -17.75579 98 ft 37 kts 357°
2026-04-24 10:05 28.63164 -17.75580 93 ft 1 kts 93°
2026-04-24 10:05 28.63152 -17.75555 94 ft 11 kts 133°
2026-04-24 10:05 28.63120 -17.75550 95 ft 7 kts 192°
2026-04-24 10:05 28.63036 -17.75562 98 ft 16 kts 182°
2026-04-24 10:06 28.62896 -17.75561 102 ft 24 kts 178°
2026-04-24 10:06 28.62624 -17.75503 103 ft 12 kts 139°
2026-04-24 10:06 28.62557 -17.75455 102 ft 11 kts 169°
2026-04-24 10:07 28.62479 -17.75447 104 ft 10 kts 178°
2026-04-24 10:07 28.62420 -17.75447 108 ft 5 kts 180°
2026-04-24 10:07 28.62396 -17.75446 110 ft 2 kts 179°